Weather History for KLRJ - May, 2013

Change the Weather History Date:

Sunday, May 5, 2013

  Actual Average Record
Temperature  
Mean Temperature 45 °F -  
Max Temperature 51 °F 72 °F 89 °F (2000)
Min Temperature 39 °F 46 °F 32 °F (1989)
Degree Days  
Heating Degree Days 20    
Moisture  
Dew Point 41 °F    
Average Humidity 85    
Maximum Humidity 93    
Minimum Humidity 71    
Precipitation  
Precipitation 0.03 in - - ()
Sea Level Pressure  
Sea Level Pressure 30.15 in    
Wind  
Wind Speed 7 mph (North)    
Max Wind Speed 13 mph    
Max Gust Speed -    
Visibility 10 miles    
Events Rain    
Averages and records for this station are not official NWS values.
T = Trace of Precipitation, MM = Missing Value Source: NWS Daily Summary

Daily Weather History Graph

Daily Weather History Graph

Search for Another Location

Airport or City:

Trip Planner

Search our weather history database for the weather conditions in past years. The results will help you decide how hot, cold, wet, or windy it might be!

Date:

Astronomy

May. 05, 2013 Rise Set
Actual Time 6:13 AM CDT 8:30 PM CDT
Civil Twilight 5:42 AM CDT 9:01 PM CDT
Nautical Twilight 5:03 AM CDT 9:40 PM CDT
Astronomical Twilight 4:20 AM CDT 10:23 PM CDT
Moon 3:50 AM CDT (5/5) 4:25 PM CDT (5/5)
Length of Visible Light 15h 19m
Length of Day
14h 16m
Waning Crescent, 18% of the Moon is Illuminated
May 5
Waning Crescent
May 9
New
May 17
First Quarter
May 24
Full
May 31
Last Quarter

Hourly Weather History & Observations

Time (CDT) Temp. Windchill Dew Point Humidity Pressure Visibility Wind Dir Wind Speed Gust Speed Precip Events Conditions
12:15 AM 39.2 °F 35.0 °F 37.4 °F 93% 30.17 in 10.0 mi North 5.8 mph - 0.01 in Rain Rain
12:35 AM 39.2 °F 35.0 °F 37.4 °F 93% 30.17 in 7.0 mi North 5.8 mph - 0.01 in Rain Light Rain
12:55 AM 39.2 °F 34.2 °F 37.4 °F 93% 30.17 in 10.0 mi North 6.9 mph - 0.02 in Rain Rain
1:15 AM 39.2 °F 35.0 °F 37.4 °F 93% 30.17 in 7.0 mi North 5.8 mph - N/A Rain Light Rain
1:35 AM 39.2 °F 35.9 °F 37.4 °F 93% 30.16 in 10.0 mi North 4.6 mph - N/A   Drizzle
1:55 AM 39.2 °F 35.0 °F 37.4 °F 93% 30.16 in 10.0 mi North 5.8 mph - N/A Rain Light Rain
2:15 AM 39.2 °F 34.2 °F 37.4 °F 93% 30.15 in 10.0 mi North 6.9 mph - N/A   Drizzle
2:35 AM 39.2 °F 35.0 °F 37.4 °F 93% 30.15 in 10.0 mi North 5.8 mph - N/A   Light Drizzle
2:55 AM 39.2 °F 35.9 °F 37.4 °F 93% 30.15 in 10.0 mi North 4.6 mph - N/A   Overcast
3:15 AM 39.2 °F 35.9 °F 37.4 °F 93% 30.15 in 10.0 mi North 4.6 mph - N/A   Overcast
3:35 AM 39.2 °F 35.0 °F 37.4 °F 93% 30.15 in 10.0 mi North 5.8 mph - N/A   Overcast
3:55 AM 39.2 °F 34.2 °F 37.4 °F 93% 30.16 in 10.0 mi North 6.9 mph - N/A   Overcast
4:15 AM 39.2 °F 35.0 °F 37.4 °F 93% 30.16 in 10.0 mi North 5.8 mph - N/A   Overcast
4:35 AM 39.2 °F 35.9 °F 37.4 °F 93% 30.16 in 10.0 mi North 4.6 mph - N/A   Overcast
4:55 AM 39.2 °F 34.2 °F 37.4 °F 93% 30.16 in 10.0 mi North 6.9 mph - N/A   Overcast
5:15 AM 39.2 °F 35.9 °F 37.4 °F 93% 30.16 in 10.0 mi North 4.6 mph - N/A   Overcast
5:35 AM 39.2 °F 35.9 °F 37.4 °F 93% 30.16 in 10.0 mi North 4.6 mph - N/A   Overcast
5:55 AM 39.2 °F 34.2 °F 37.4 °F 93% 30.16 in 10.0 mi North 6.9 mph - N/A   Overcast
6:15 AM 39.2 °F 33.6 °F 37.4 °F 93% 30.16 in 10.0 mi NNW 8.1 mph - N/A   Overcast
6:35 AM 39.2 °F 33.6 °F 37.4 °F 93% 30.17 in 10.0 mi North 8.1 mph - N/A   Overcast
6:55 AM 39.2 °F 34.2 °F 37.4 °F 93% 30.17 in 10.0 mi North 6.9 mph - N/A   Overcast
7:15 AM 39.2 °F 34.2 °F 37.4 °F 93% 30.17 in 10.0 mi North 6.9 mph - N/A   Overcast
7:35 AM 39.2 °F 33.6 °F 37.4 °F 93% 30.17 in 10.0 mi North 8.1 mph - N/A   Overcast
7:55 AM 41.0 °F 37.1 °F 37.4 °F 87% 30.17 in 10.0 mi North 5.8 mph - N/A   Overcast
8:15 AM 41.0 °F 34.7 °F 37.4 °F 87% 30.18 in 10.0 mi North 10.4 mph - N/A   Overcast
8:35 AM 42.8 °F 38.0 °F 37.4 °F 81% 30.18 in 10.0 mi North 8.1 mph - N/A   Overcast
8:55 AM 42.8 °F 38.0 °F 37.4 °F 81% 30.18 in 10.0 mi North 8.1 mph - N/A   Overcast
9:15 AM 42.8 °F 38.0 °F 39.2 °F 87% 30.18 in 10.0 mi North 8.1 mph - 0.01 in   Overcast
9:35 AM 44.6 °F 40.7 °F 39.2 °F 81% 30.18 in 10.0 mi North 6.9 mph - 0.01 in Rain Light Rain
9:55 AM 44.6 °F 41.4 °F 41.0 °F 87% 30.18 in 10.0 mi North 5.8 mph - 0.01 in Rain Light Rain
10:15 AM 44.6 °F 40.2 °F 41.0 °F 87% 30.17 in 10.0 mi North 8.1 mph - N/A Rain Light Rain
10:35 AM 46.4 °F 41.9 °F 41.0 °F 81% 30.17 in 10.0 mi North 9.2 mph - N/A   Light Drizzle
10:55 AM 46.4 °F 41.9 °F 42.8 °F 87% 30.17 in 10.0 mi North 9.2 mph - N/A   Overcast
11:15 AM 48.2 °F - 42.8 °F 82% 30.18 in 10.0 mi NNW 9.2 mph - N/A   Overcast
11:35 AM 48.2 °F - 42.8 °F 82% 30.17 in 10.0 mi NNW 10.4 mph - N/A   Overcast
11:55 AM 48.2 °F - 42.8 °F 82% 30.17 in 10.0 mi NNW 12.7 mph - N/A   Overcast
12:15 PM 48.2 °F - 42.8 °F 82% 30.18 in 10.0 mi NNW 10.4 mph - N/A   Overcast
12:35 PM 48.2 °F - 42.8 °F 82% 30.18 in 10.0 mi NNW 10.4 mph - N/A   Overcast
1:15 PM 48.2 °F - 42.8 °F 82% 30.17 in 10.0 mi NNW 8.1 mph - N/A   Overcast
1:35 PM 48.2 °F - 42.8 °F 82% 30.17 in 10.0 mi NNW 9.2 mph - N/A   Overcast
1:55 PM 48.2 °F - 42.8 °F 82% 30.17 in 10.0 mi North 8.1 mph - N/A   Overcast
2:15 PM 50.0 °F - 42.8 °F 76% 30.16 in 10.0 mi North 6.9 mph - N/A   Overcast
2:35 PM 51.8 °F - 44.6 °F 76% 30.16 in 10.0 mi NNW 9.2 mph - N/A   Overcast
2:55 PM 51.8 °F - 42.8 °F 71% 30.16 in 10.0 mi North 10.4 mph - N/A   Overcast
3:35 PM 51.8 °F - 44.6 °F 76% 30.14 in 10.0 mi NNW 9.2 mph - N/A   Overcast
3:55 PM 51.8 °F - 44.6 °F 76% 30.14 in 10.0 mi NNW 6.9 mph - N/A   Overcast
4:15 PM 51.8 °F - 44.6 °F 76% 30.13 in 10.0 mi NNW 9.2 mph - N/A   Overcast
4:35 PM 51.8 °F - 44.6 °F 76% 30.13 in 10.0 mi North 8.1 mph - N/A   Overcast
4:55 PM 51.8 °F - 44.6 °F 76% 30.13 in 10.0 mi NNW 9.2 mph - N/A Rain Light Rain
5:15 PM 51.8 °F - 44.6 °F 76% 30.13 in 10.0 mi North 9.2 mph - N/A   Overcast
5:35 PM 51.8 °F - 44.6 °F 76% 30.13 in 10.0 mi North 9.2 mph - N/A   Overcast
5:55 PM 51.8 °F - 44.6 °F 76% 30.13 in 10.0 mi North 8.1 mph - N/A   Overcast
6:15 PM 51.8 °F - 44.6 °F 76% 30.13 in 10.0 mi NNW 8.1 mph - N/A   Overcast
6:35 PM 51.8 °F - 44.6 °F 76% 30.13 in 10.0 mi North 5.8 mph - N/A   Overcast
6:55 PM 51.8 °F - 44.6 °F 76% 30.12 in 10.0 mi NNE 5.8 mph - N/A   Overcast
7:15 PM 51.8 °F - 44.6 °F 76% 30.12 in 10.0 mi North 6.9 mph - N/A   Overcast
7:35 PM 51.8 °F - 44.6 °F 76% 30.13 in 10.0 mi North 5.8 mph - N/A   Overcast
7:55 PM 51.8 °F - 44.6 °F 76% 30.13 in 10.0 mi North 5.8 mph - N/A   Overcast
8:15 PM 50.0 °F - 44.6 °F 82% 30.13 in 7.0 mi North 5.8 mph - N/A   Overcast
8:35 PM 50.0 °F - 44.6 °F 82% 30.13 in 7.0 mi NNW 4.6 mph - N/A   Overcast
8:55 PM 50.0 °F - 44.6 °F 82% 30.13 in 10.0 mi North 4.6 mph - N/A   Overcast
9:35 PM 48.2 °F - 44.6 °F 87% 30.13 in 10.0 mi NNW 3.5 mph - N/A   Overcast
9:55 PM 48.2 °F - 44.6 °F 87% 30.14 in 10.0 mi Calm Calm - N/A   Overcast
10:15 PM 48.2 °F - 44.6 °F 87% 30.14 in 10.0 mi NW 3.5 mph - N/A   Overcast
10:35 PM 48.2 °F - 44.6 °F 87% 30.14 in 10.0 mi NW 3.5 mph - N/A   Overcast
10:55 PM 48.2 °F - 44.6 °F 87% 30.14 in 10.0 mi NNW 3.5 mph - N/A   Overcast
11:15 PM 48.2 °F - 44.6 °F 87% 30.14 in 10.0 mi Calm Calm - N/A   Overcast
11:35 PM 48.2 °F - 44.6 °F 87% 30.14 in 10.0 mi Calm Calm - N/A   Overcast
11:55 PM 48.2 °F - 44.6 °F 87% 30.13 in 10.0 mi Calm Calm - N/A   Overcast